owner,sensor,date,latitude,longitude,vertical_datum,wind_speed,wind_to_direction,wind_speed_of_gust,qcFlag 
TCOON,ioos:station:TCOON:003:1,2013-02-01T00:00:00Z,26.8015,-97.4706,0.0,5.7,138.0,6.4,'11111222,11111222,11111222' 
TCOON,ioos:station:TCOON:003:1,2013-02-01T01:00:00Z,26.8015,-97.4706,0.0,4.7,139.0,5.2,'11111222,11111222,11111222' 
TCOON,ioos:station:TCOON:003:1,2013-02-01T02:00:00Z,26.8015,-97.4706,0.0,4.5,143.0,5.3,'11111222,11111222,11111222' 
TCOON,ioos:station:TCOON:003:1,2013-02-01T03:00:00Z,26.8015,-97.4706,0.0,2.8,126.0,3.4,'11111222,11111222,11111222' 
TCOON,ioos:station:TCOON:003:1,2013-02-01T04:00:00Z,26.8015,-97.4706,0.0,3.0,121.0,3.3,'11111222,11111222,11111222' 
TCOON,ioos:station:TCOON:003:1,2013-02-01T05:00:00Z,26.8015,-97.4706,0.0,2.6,135.0,2.8,'11111222,11111222,11111222' 
TCOON,ioos:station:TCOON:003:1,2013-02-01T06:00:00Z,26.8015,-97.4706,0.0,4.0,140.0,4.6,'11111222,11111222,11111222' 
TCOON,ioos:station:TCOON:003:1,2013-02-01T07:00:00Z,26.8015,-97.4706,0.0,3.1,123.0,3.3,'11111222,11111222,11111222' 
TCOON,ioos:station:TCOON:003:1,2013-02-01T08:00:00Z,26.8015,-97.4706,0.0,2.7,130.0,3.0,'11111222,11111222,11111222' 
TCOON,ioos:station:TCOON:003:1,2013-02-01T09:00:00Z,26.8015,-97.4706,0.0,1.8,109.0,2.2,'11111222,11111222,11111222' 
TCOON,ioos:station:TCOON:003:1,2013-02-01T10:00:00Z,26.8015,-97.4706,0.0,2.0,97.0,2.9,'11111222,11111222,11111222' 
TCOON,ioos:station:TCOON:003:1,2013-02-01T11:00:00Z,26.8015,-97.4706,0.0,2.3,97.0,2.6,'11111222,11111222,11111222' 
TCOON,ioos:station:TCOON:003:1,2013-02-01T12:00:00Z,26.8015,-97.4706,0.0,1.9,100.0,2.5,'11111222,11111222,11111222' 
TCOON,ioos:station:TCOON:003:1,2013-02-01T13:00:00Z,26.8015,-97.4706,0.0,2.3,109.0,2.5,'11111222,11111222,11111222' 
TCOON,ioos:station:TCOON:003:1,2013-02-01T14:00:00Z,26.8015,-97.4706,0.0,3.1,134.0,3.6,'11111222,11111222,11111222' 
TCOON,ioos:station:TCOON:003:1,2013-02-01T15:00:00Z,26.8015,-97.4706,0.0,3.8,138.0,4.8,'11111222,11111222,11111222' 
TCOON,ioos:station:TCOON:003:1,2013-02-01T16:00:00Z,26.8015,-97.4706,0.0,4.5,132.0,5.4,'11111222,11111222,11111222' 
TCOON,ioos:station:TCOON:003:1,2013-02-01T17:00:00Z,26.8015,-97.4706,0.0,5.6,126.0,6.4,'11111222,11111222,11111222' 
TCOON,ioos:station:TCOON:003:1,2013-02-01T18:00:00Z,26.8015,-97.4706,0.0,6.1,126.0,6.9,'11111222,11111222,11111222' 
TCOON,ioos:station:TCOON:003:1,2013-02-01T19:00:00Z,26.8015,-97.4706,0.0,6.5,128.0,7.8,'11111222,11111222,11111222' 
TCOON,ioos:station:TCOON:003:1,2013-02-01T20:00:00Z,26.8015,-97.4706,0.0,5.5,121.0,7.0,'11111222,11111222,11111222' 
TCOON,ioos:station:TCOON:003:1,2013-02-01T21:00:00Z,26.8015,-97.4706,0.0,6.2,128.0,8.7,'11111222,11111222,11111222' 
TCOON,ioos:station:TCOON:003:1,2013-02-01T22:00:00Z,26.8015,-97.4706,0.0,7.2,121.0,8.5,'11111222,11111222,11111222' 
TCOON,ioos:station:TCOON:003:1,2013-02-01T23:00:00Z,26.8015,-97.4706,0.0,6.2,128.0,7.6,'11111222,11111222,11111222' 
TCOON,ioos:station:TCOON:003:1,2013-02-02T00:00:00Z,26.8015,-97.4706,0.0,5.7,127.0,7.1,'11111222,11111222,11111222' 
TCOON,ioos:station:TCOON:003:1,2013-02-02T01:00:00Z,26.8015,-97.4706,0.0,5.3,127.0,6.1,'11111222,11111222,11111222' 
TCOON,ioos:station:TCOON:003:1,2013-02-02T02:00:00Z,26.8015,-97.4706,0.0,4.4,136.0,4.9,'11111222,11111222,11111222' 
TCOON,ioos:station:TCOON:003:1,2013-02-02T03:00:00Z,26.8015,-97.4706,0.0,4.8,128.0,5.6,'11111222,11111222,11111222' 
TCOON,ioos:station:TCOON:003:1,2013-02-02T04:00:00Z,26.8015,-97.4706,0.0,5.2,137.0,6.2,'11111222,11111222,11111222' 
TCOON,ioos:station:TCOON:003:1,2013-02-02T05:00:00Z,26.8015,-97.4706,0.0,4.2,148.0,4.7,'11111222,11111222,11111222' 
TCOON,ioos:station:TCOON:003:1,2013-02-02T06:00:00Z,26.8015,-97.4706,0.0,4.9,148.0,5.5,'11111222,11111222,11111222' 
TCOON,ioos:station:TCOON:003:1,2013-02-02T07:00:00Z,26.8015,-97.4706,0.0,5.2,144.0,5.8,'11111222,11111222,11111222' 
TCOON,ioos:station:TCOON:003:1,2013-02-02T08:00:00Z,26.8015,-97.4706,0.0,4.5,140.0,5.4,'11111222,11111222,11111222' 
TCOON,ioos:station:TCOON:003:1,2013-02-02T09:00:00Z,26.8015,-97.4706,0.0,4.1,134.0,4.7,'11111222,11111222,11111222' 
TCOON,ioos:station:TCOON:003:1,2013-02-02T10:00:00Z,26.8015,-97.4706,0.0,3.4,125.0,3.8,'11111222,11111222,11111222' 
TCOON,ioos:station:TCOON:003:1,2013-02-02T11:00:00Z,26.8015,-97.4706,0.0,2.2,108.0,2.5,'11111222,11111222,11111222' 
TCOON,ioos:station:TCOON:003:1,2013-02-02T12:00:00Z,26.8015,-97.4706,0.0,2.1,80.0,2.5,'11111222,11111222,11111222' 
TCOON,ioos:station:TCOON:003:1,2013-02-02T13:00:00Z,26.8015,-97.4706,0.0,3.4,124.0,3.8,'11111222,11111222,11111222' 
TCOON,ioos:station:TCOON:003:1,2013-02-02T14:00:00Z,26.8015,-97.4706,0.0,3.2,125.0,3.7,'11111222,11111222,11111222' 
TCOON,ioos:station:TCOON:003:1,2013-02-02T15:00:00Z,26.8015,-97.4706,0.0,4.1,146.0,4.9,'11111222,11111222,11111222' 
TCOON,ioos:station:TCOON:003:1,2013-02-02T16:00:00Z,26.8015,-97.4706,0.0,3.7,152.0,4.2,'11111222,11111222,11111222' 
TCOON,ioos:station:TCOON:003:1,2013-02-02T17:00:00Z,26.8015,-97.4706,0.0,4.0,141.0,4.9,'11111222,11111222,11111222' 
TCOON,ioos:station:TCOON:003:1,2013-02-02T18:00:00Z,26.8015,-97.4706,0.0,5.5,134.0,6.4,'11111222,11111222,11111222' 
TCOON,ioos:station:TCOON:003:1,2013-02-02T19:00:00Z,26.8015,-97.4706,0.0,6.9,123.0,8.4,'11111222,11111222,11111222' 
TCOON,ioos:station:TCOON:003:1,2013-02-02T20:00:00Z,26.8015,-97.4706,0.0,6.6,123.0,8.1,'11111222,11111222,11111222' 
TCOON,ioos:station:TCOON:003:1,2013-02-02T21:00:00Z,26.8015,-97.4706,0.0,8.1,108.0,10.9,'11111222,11111222,11111222' 
TCOON,ioos:station:TCOON:003:1,2013-02-02T22:00:00Z,26.8015,-97.4706,0.0,8.2,107.0,9.4,'11111222,11111222,11111222' 
TCOON,ioos:station:TCOON:003:1,2013-02-02T23:00:00Z,26.8015,-97.4706,0.0,7.4,107.0,8.3,'11111222,11111222,11111222' 
TCOON,ioos:station:TCOON:003:1,2013-02-03T00:00:00Z,26.8015,-97.4706,0.0,6.1,105.0,6.9,'11111222,11111222,11111222' 
TCOON,ioos:station:TCOON:003:1,2013-02-03T01:00:00Z,26.8015,-97.4706,0.0,5.3,109.0,6.0,'11111222,11111222,11111222' 
TCOON,ioos:station:TCOON:003:1,2013-02-03T02:00:00Z,26.8015,-97.4706,0.0,5.3,127.0,6.1,'11111222,11111222,11111222' 
TCOON,ioos:station:TCOON:003:1,2013-02-03T03:00:00Z,26.8015,-97.4706,0.0,3.8,119.0,4.3,'11111222,11111222,11111222' 
TCOON,ioos:station:TCOON:003:1,2013-02-03T04:00:00Z,26.8015,-97.4706,0.0,3.7,148.0,4.3,'11111222,11111222,11111222' 
TCOON,ioos:station:TCOON:003:1,2013-02-03T05:00:00Z,26.8015,-97.4706,0.0,2.5,138.0,3.6,'11111222,11111222,11111222' 
TCOON,ioos:station:TCOON:003:1,2013-02-03T06:00:00Z,26.8015,-97.4706,0.0,1.1,104.0,1.7,'11111222,11111222,11111222' 
TCOON,ioos:station:TCOON:003:1,2013-02-03T07:00:00Z,26.8015,-97.4706,0.0,1.5,118.0,1.8,'11111222,11111222,11111222' 
TCOON,ioos:station:TCOON:003:1,2013-02-03T08:00:00Z,26.8015,-97.4706,0.0,2.2,85.0,2.3,'11111222,11111222,11111222' 
TCOON,ioos:station:TCOON:003:1,2013-02-03T09:00:00Z,26.8015,-97.4706,0.0,1.7,106.0,2.0,'11111222,11111222,11111222' 
TCOON,ioos:station:TCOON:003:1,2013-02-03T10:00:00Z,26.8015,-97.4706,0.0,1.8,113.0,2.0,'11111222,11111222,11111222' 
TCOON,ioos:station:TCOON:003:1,2013-02-03T11:00:00Z,26.8015,-97.4706,0.0,1.2,132.0,1.3,'11111222,11111222,11111222' 
TCOON,ioos:station:TCOON:003:1,2013-02-03T12:00:00Z,26.8015,-97.4706,0.0,0.9,115.0,1.1,'11111222,11111222,11111222' 
TCOON,ioos:station:TCOON:003:1,2013-02-03T13:00:00Z,26.8015,-97.4706,0.0,1.2,27.0,1.3,'11111222,11111222,11111222' 
TCOON,ioos:station:TCOON:003:1,2013-02-03T14:00:00Z,26.8015,-97.4706,0.0,3.5,34.0,4.8,'11111222,11111222,11111222' 
TCOON,ioos:station:TCOON:003:1,2013-02-03T15:00:00Z,26.8015,-97.4706,0.0,3.7,49.0,4.3,'11111222,11111222,11111222' 
TCOON,ioos:station:TCOON:003:1,2013-02-03T16:00:00Z,26.8015,-97.4706,0.0,3.9,45.0,5.1,'11111222,11111222,11111222' 
TCOON,ioos:station:TCOON:003:1,2013-02-03T17:00:00Z,26.8015,-97.4706,0.0,3.2,73.0,4.4,'11111222,11111222,11111222' 
TCOON,ioos:station:TCOON:003:1,2013-02-03T18:00:00Z,26.8015,-97.4706,0.0,3.9,104.0,5.4,'11111222,11111222,11111222' 
TCOON,ioos:station:TCOON:003:1,2013-02-03T19:00:00Z,26.8015,-97.4706,0.0,5.1,87.0,6.3,'11111222,11111222,11111222' 
TCOON,ioos:station:TCOON:003:1,2013-02-03T20:00:00Z,26.8015,-97.4706,0.0,5.8,87.0,7.1,'11111222,11111222,11111222' 
TCOON,ioos:station:TCOON:003:1,2013-02-03T21:00:00Z,26.8015,-97.4706,0.0,6.4,85.0,7.8,'11111222,11111222,11111222' 
TCOON,ioos:station:TCOON:003:1,2013-02-03T22:00:00Z,26.8015,-97.4706,0.0,6.2,88.0,7.1,'11111222,11111222,11111222' 
TCOON,ioos:station:TCOON:003:1,2013-02-03T23:00:00Z,26.8015,-97.4706,0.0,6.3,92.0,7.5,'11111222,11111222,11111222' 
TCOON,ioos:station:TCOON:003:1,2013-02-04T00:00:00Z,26.8015,-97.4706,0.0,6.6,107.0,7.4,'11111222,11111222,11111222' 
TCOON,ioos:station:TCOON:003:1,2013-02-04T01:00:00Z,26.8015,-97.4706,0.0,5.9,112.0,7.7,'11111222,11111222,11111222' 
TCOON,ioos:station:TCOON:003:1,2013-02-04T02:00:00Z,26.8015,-97.4706,0.0,6.2,114.0,7.4,'11111222,11111222,11111222' 
TCOON,ioos:station:TCOON:003:1,2013-02-04T03:00:00Z,26.8015,-97.4706,0.0,7.1,120.0,8.3,'11111222,11111222,11111222' 
TCOON,ioos:station:TCOON:003:1,2013-02-04T04:00:00Z,26.8015,-97.4706,0.0,5.0,138.0,5.9,'11111222,11111222,11111222' 
TCOON,ioos:station:TCOON:003:1,2013-02-04T05:00:00Z,26.8015,-97.4706,0.0,7.3,139.0,8.4,'11111222,11111222,11111222' 
TCOON,ioos:station:TCOON:003:1,2013-02-04T06:00:00Z,26.8015,-97.4706,0.0,6.5,147.0,7.2,'11111222,11111222,11111222' 
TCOON,ioos:station:TCOON:003:1,2013-02-04T07:00:00Z,26.8015,-97.4706,0.0,7.1,146.0,8.4,'11111222,11111222,11111222' 
TCOON,ioos:station:TCOON:003:1,2013-02-04T08:00:00Z,26.8015,-97.4706,0.0,6.5,152.0,7.7,'11111222,11111222,11111222' 
TCOON,ioos:station:TCOON:003:1,2013-02-04T09:00:00Z,26.8015,-97.4706,0.0,6.0,147.0,7.2,'11111222,11111222,11111222' 
TCOON,ioos:station:TCOON:003:1,2013-02-04T10:00:00Z,26.8015,-97.4706,0.0,4.2,151.0,5.2,'11111222,11111222,11111222' 
TCOON,ioos:station:TCOON:003:1,2013-02-04T11:00:00Z,26.8015,-97.4706,0.0,4.0,126.0,4.8,'11111222,11111222,11111222' 
TCOON,ioos:station:TCOON:003:1,2013-02-04T12:00:00Z,26.8015,-97.4706,0.0,3.4,134.0,4.5,'11111222,11111222,11111222' 
TCOON,ioos:station:TCOON:003:1,2013-02-04T13:00:00Z,26.8015,-97.4706,0.0,3.1,160.0,3.7,'11111222,11111222,11111222' 
TCOON,ioos:station:TCOON:003:1,2013-02-04T14:00:00Z,26.8015,-97.4706,0.0,3.7,159.0,4.2,'11111222,11111222,11111222' 
TCOON,ioos:station:TCOON:003:1,2013-02-04T15:00:00Z,26.8015,-97.4706,0.0,4.6,139.0,5.2,'11111222,11111222,11111222' 
TCOON,ioos:station:TCOON:003:1,2013-02-04T16:00:00Z,26.8015,-97.4706,0.0,7.6,152.0,8.5,'11111222,11111222,11111222' 
TCOON,ioos:station:TCOON:003:1,2013-02-04T17:00:00Z,26.8015,-97.4706,0.0,7.9,149.0,8.8,'11111222,11111222,11111222' 
TCOON,ioos:station:TCOON:003:1,2013-02-04T18:00:00Z,26.8015,-97.4706,0.0,7.9,146.0,9.3,'11111222,11111222,11111222' 
TCOON,ioos:station:TCOON:003:1,2013-02-04T19:00:00Z,26.8015,-97.4706,0.0,8.0,149.0,9.2,'11111222,11111222,11111222' 
TCOON,ioos:station:TCOON:003:1,2013-02-04T20:00:00Z,26.8015,-97.4706,0.0,8.4,152.0,9.4,'11111222,11111222,11111222' 
TCOON,ioos:station:TCOON:003:1,2013-02-04T21:00:00Z,26.8015,-97.4706,0.0,9.8,141.0,11.8,'11111222,11111222,11111222' 
TCOON,ioos:station:TCOON:003:1,2013-02-04T22:00:00Z,26.8015,-97.4706,0.0,9.3,140.0,11.0,'11111222,11111222,11111222' 
TCOON,ioos:station:TCOON:003:1,2013-02-04T23:00:00Z,26.8015,-97.4706,0.0,10.3,146.0,13.1,'11111222,11111222,11111222' 
TCOON,ioos:station:TCOON:003:1,2013-02-05T00:00:00Z,26.8015,-97.4706,0.0,10.0,150.0,11.7,'11111222,11111222,11111222' 
TCOON,ioos:station:TCOON:003:1,2013-02-05T01:00:00Z,26.8015,-97.4706,0.0,7.7,161.0,8.9,'11111222,11111222,11111222' 
TCOON,ioos:station:TCOON:003:1,2013-02-05T02:00:00Z,26.8015,-97.4706,0.0,7.1,159.0,8.2,'11111222,11111222,11111222' 
TCOON,ioos:station:TCOON:003:1,2013-02-05T03:00:00Z,26.8015,-97.4706,0.0,4.5,157.0,5.4,'11111222,11111222,11111222' 
TCOON,ioos:station:TCOON:003:1,2013-02-05T04:00:00Z,26.8015,-97.4706,0.0,6.7,174.0,7.6,'11111222,11111222,11111222' 
TCOON,ioos:station:TCOON:003:1,2013-02-05T05:00:00Z,26.8015,-97.4706,0.0,5.2,194.0,6.2,'11111222,11111222,11111222' 
TCOON,ioos:station:TCOON:003:1,2013-02-05T06:00:00Z,26.8015,-97.4706,0.0,5.6,185.0,6.2,'11111222,11111222,11111222' 
TCOON,ioos:station:TCOON:003:1,2013-02-05T07:00:00Z,26.8015,-97.4706,0.0,4.5,179.0,5.6,'11111222,11111222,11111222' 
TCOON,ioos:station:TCOON:003:1,2013-02-05T08:00:00Z,26.8015,-97.4706,0.0,4.7,183.0,6.0,'11111222,11111222,11111222' 
TCOON,ioos:station:TCOON:003:1,2013-02-05T09:00:00Z,26.8015,-97.4706,0.0,3.3,190.0,3.8,'11111222,11111222,11111222' 
TCOON,ioos:station:TCOON:003:1,2013-02-05T10:00:00Z,26.8015,-97.4706,0.0,2.6,185.0,3.0,'11111222,11111222,11111222' 
TCOON,ioos:station:TCOON:003:1,2013-02-05T11:00:00Z,26.8015,-97.4706,0.0,2.5,170.0,2.9,'11111222,11111222,11111222' 
TCOON,ioos:station:TCOON:003:1,2013-02-05T12:00:00Z,26.8015,-97.4706,0.0,2.2,160.0,2.9,'11111222,11111222,11111222' 
TCOON,ioos:station:TCOON:003:1,2013-02-05T13:00:00Z,26.8015,-97.4706,0.0,3.4,174.0,3.8,'11111222,11111222,11111222' 
TCOON,ioos:station:TCOON:003:1,2013-02-05T14:00:00Z,26.8015,-97.4706,0.0,3.0,172.0,3.2,'11111222,11111222,11111222' 
TCOON,ioos:station:TCOON:003:1,2013-02-05T15:00:00Z,26.8015,-97.4706,0.0,2.1,168.0,2.4,'11111222,11111222,11111222' 
TCOON,ioos:station:TCOON:003:1,2013-02-05T16:00:00Z,26.8015,-97.4706,0.0,3.5,121.0,3.9,'11111222,11111222,11111222' 
TCOON,ioos:station:TCOON:003:1,2013-02-05T17:00:00Z,26.8015,-97.4706,0.0,4.7,141.0,5.2,'11111222,11111222,11111222' 
TCOON,ioos:station:TCOON:003:1,2013-02-05T18:00:00Z,26.8015,-97.4706,0.0,4.1,138.0,4.9,'11111222,11111222,11111222' 
TCOON,ioos:station:TCOON:003:1,2013-02-05T19:00:00Z,26.8015,-97.4706,0.0,3.3,130.0,4.2,'11111222,11111222,11111222' 
TCOON,ioos:station:TCOON:003:1,2013-02-05T20:00:00Z,26.8015,-97.4706,0.0,6.5,121.0,7.8,'11111222,11111222,11111222' 
TCOON,ioos:station:TCOON:003:1,2013-02-05T21:00:00Z,26.8015,-97.4706,0.0,8.2,126.0,9.0,'11111222,11111222,11111222' 
TCOON,ioos:station:TCOON:003:1,2013-02-05T22:00:00Z,26.8015,-97.4706,0.0,8.9,126.0,9.9,'11111222,11111222,11111222' 
TCOON,ioos:station:TCOON:003:1,2013-02-05T23:00:00Z,26.8015,-97.4706,0.0,8.4,125.0,9.9,'11111222,11111222,11111222' 
TCOON,ioos:station:TCOON:003:1,2013-02-06T00:00:00Z,26.8015,-97.4706,0.0,7.3,117.0,8.3,'11111222,11111222,11111222' 
TCOON,ioos:station:TCOON:003:1,2013-02-06T01:00:00Z,26.8015,-97.4706,0.0,7.2,107.0,8.4,'11111222,11111222,11111222' 
TCOON,ioos:station:TCOON:003:1,2013-02-06T02:00:00Z,26.8015,-97.4706,0.0,7.9,120.0,9.3,'11111222,11111222,11111222' 
TCOON,ioos:station:TCOON:003:1,2013-02-06T03:00:00Z,26.8015,-97.4706,0.0,9.0,125.0,10.1,'11111222,11111222,11111222' 
TCOON,ioos:station:TCOON:003:1,2013-02-06T04:00:00Z,26.8015,-97.4706,0.0,8.0,130.0,8.9,'11111222,11111222,11111222' 
TCOON,ioos:station:TCOON:003:1,2013-02-06T05:00:00Z,26.8015,-97.4706,0.0,7.0,131.0,9.1,'11111222,11111222,11111222' 
TCOON,ioos:station:TCOON:003:1,2013-02-06T06:00:00Z,26.8015,-97.4706,0.0,3.1,132.0,3.8,'11111222,11111222,11111222' 
TCOON,ioos:station:TCOON:003:1,2013-02-06T07:00:00Z,26.8015,-97.4706,0.0,5.1,104.0,6.6,'11111222,11111222,11111222' 
TCOON,ioos:station:TCOON:003:1,2013-02-06T08:00:00Z,26.8015,-97.4706,0.0,4.3,102.0,4.9,'11111222,11111222,11111222' 
TCOON,ioos:station:TCOON:003:1,2013-02-06T09:00:00Z,26.8015,-97.4706,0.0,4.6,104.0,5.8,'11111222,11111222,11111222' 
TCOON,ioos:station:TCOON:003:1,2013-02-06T10:00:00Z,26.8015,-97.4706,0.0,4.4,107.0,5.4,'11111222,11111222,11111222' 
TCOON,ioos:station:TCOON:003:1,2013-02-06T11:00:00Z,26.8015,-97.4706,0.0,5.3,105.0,6.6,'11111222,11111222,11111222' 
TCOON,ioos:station:TCOON:003:1,2013-02-06T12:00:00Z,26.8015,-97.4706,0.0,5.3,103.0,6.1,'11111222,11111222,11111222' 
TCOON,ioos:station:TCOON:003:1,2013-02-06T13:00:00Z,26.8015,-97.4706,0.0,6.3,108.0,7.1,'11111222,11111222,11111222' 
TCOON,ioos:station:TCOON:003:1,2013-02-06T14:00:00Z,26.8015,-97.4706,0.0,6.2,111.0,7.8,'11111222,11111222,11111222' 
TCOON,ioos:station:TCOON:003:1,2013-02-06T15:00:00Z,26.8015,-97.4706,0.0,7.0,125.0,8.8,'11111222,11111222,11111222' 
TCOON,ioos:station:TCOON:003:1,2013-02-06T16:00:00Z,26.8015,-97.4706,0.0,7.1,144.0,8.5,'11111222,11111222,11111222' 
TCOON,ioos:station:TCOON:003:1,2013-02-06T17:00:00Z,26.8015,-97.4706,0.0,6.9,158.0,10.0,'11111222,11111222,11111222' 
TCOON,ioos:station:TCOON:003:1,2013-02-06T18:00:00Z,26.8015,-97.4706,0.0,9.8,162.0,11.6,'11111222,11111222,11111222' 
TCOON,ioos:station:TCOON:003:1,2013-02-06T19:00:00Z,26.8015,-97.4706,0.0,8.5,166.0,10.4,'11111222,11111222,11111222' 
TCOON,ioos:station:TCOON:003:1,2013-02-06T20:00:00Z,26.8015,-97.4706,0.0,7.0,151.0,8.6,'11111222,11111222,11111222' 
TCOON,ioos:station:TCOON:003:1,2013-02-06T21:00:00Z,26.8015,-97.4706,0.0,11.1,354.0,12.8,'11111222,11111222,11111222' 
TCOON,ioos:station:TCOON:003:1,2013-02-06T22:00:00Z,26.8015,-97.4706,0.0,10.3,23.0,11.4,'11111222,11111222,11111222' 
TCOON,ioos:station:TCOON:003:1,2013-02-06T23:00:00Z,26.8015,-97.4706,0.0,11.2,44.0,12.6,'11111222,11111222,11111222' 
TCOON,ioos:station:TCOON:003:1,2013-02-07T00:00:00Z,26.8015,-97.4706,0.0,8.6,45.0,10.3,'11111222,11111222,11111222' 
TCOON,ioos:station:TCOON:003:1,2013-02-07T01:00:00Z,26.8015,-97.4706,0.0,7.6,60.0,10.4,'11111222,11111222,11111222' 
TCOON,ioos:station:TCOON:003:1,2013-02-07T02:00:00Z,26.8015,-97.4706,0.0,6.6,71.0,8.5,'11111222,11111222,11111222' 
TCOON,ioos:station:TCOON:003:1,2013-02-07T03:00:00Z,26.8015,-97.4706,0.0,6.7,81.0,8.2,'11111222,11111222,11111222' 
TCOON,ioos:station:TCOON:003:1,2013-02-07T04:00:00Z,26.8015,-97.4706,0.0,5.7,89.0,7.6,'11111222,11111222,11111222' 
TCOON,ioos:station:TCOON:003:1,2013-02-07T05:00:00Z,26.8015,-97.4706,0.0,5.6,94.0,6.3,'11111222,11111222,11111222' 
TCOON,ioos:station:TCOON:003:1,2013-02-07T06:00:00Z,26.8015,-97.4706,0.0,4.3,87.0,4.7,'11111222,11111222,11111222' 
TCOON,ioos:station:TCOON:003:1,2013-02-07T07:00:00Z,26.8015,-97.4706,0.0,4.3,115.0,4.9,'11111222,11111222,11111222' 
TCOON,ioos:station:TCOON:003:1,2013-02-07T08:00:00Z,26.8015,-97.4706,0.0,2.5,106.0,3.1,'11111222,11111222,11111222' 
TCOON,ioos:station:TCOON:003:1,2013-02-07T09:00:00Z,26.8015,-97.4706,0.0,2.6,105.0,3.0,'11111222,11111222,11111222' 
TCOON,ioos:station:TCOON:003:1,2013-02-07T10:00:00Z,26.8015,-97.4706,0.0,4.0,112.0,5.0,'11111222,11111222,11111222' 
TCOON,ioos:station:TCOON:003:1,2013-02-07T11:00:00Z,26.8015,-97.4706,0.0,2.0,114.0,2.7,'11111222,11111222,11111222' 
TCOON,ioos:station:TCOON:003:1,2013-02-07T12:00:00Z,26.8015,-97.4706,0.0,1.9,125.0,2.1,'11111222,11111222,11111222' 
TCOON,ioos:station:TCOON:003:1,2013-02-07T13:00:00Z,26.8015,-97.4706,0.0,2.1,103.0,2.4,'11111222,11111222,11111222' 
TCOON,ioos:station:TCOON:003:1,2013-02-07T14:00:00Z,26.8015,-97.4706,0.0,2.3,157.0,2.5,'11111222,11111222,11111222' 
TCOON,ioos:station:TCOON:003:1,2013-02-07T15:00:00Z,26.8015,-97.4706,0.0,0.9,273.0,1.1,'11111222,11111222,11111222' 
TCOON,ioos:station:TCOON:003:1,2013-02-07T16:00:00Z,26.8015,-97.4706,0.0,2.0,330.0,2.1,'11111222,11111222,11111222' 
TCOON,ioos:station:TCOON:003:1,2013-02-07T17:00:00Z,26.8015,-97.4706,0.0,2.0,316.0,2.2,'11111222,11111222,11111222' 
TCOON,ioos:station:TCOON:003:1,2013-02-07T18:00:00Z,26.8015,-97.4706,0.0,1.2,338.0,2.1,'11111222,11111222,11111222' 
TCOON,ioos:station:TCOON:003:1,2013-02-07T19:00:00Z,26.8015,-97.4706,0.0,0.6,226.0,0.9,'11111222,11111222,11111222' 
TCOON,ioos:station:TCOON:003:1,2013-02-07T20:00:00Z,26.8015,-97.4706,0.0,2.3,28.0,4.2,'11111222,11111222,11111222' 
TCOON,ioos:station:TCOON:003:1,2013-02-07T21:00:00Z,26.8015,-97.4706,0.0,5.5,55.0,6.4,'11111222,11111222,11111222' 
TCOON,ioos:station:TCOON:003:1,2013-02-07T22:00:00Z,26.8015,-97.4706,0.0,6.3,50.0,7.7,'11111222,11111222,11111222' 
TCOON,ioos:station:TCOON:003:1,2013-02-07T23:00:00Z,26.8015,-97.4706,0.0,3.8,62.0,5.0,'11111222,11111222,11111222' 
TCOON,ioos:station:TCOON:003:1,2013-02-08T00:00:00Z,26.8015,-97.4706,0.0,4.7,39.0,5.6,'11111222,11111222,11111222' 
TCOON,ioos:station:TCOON:003:1,2013-02-08T01:00:00Z,26.8015,-97.4706,0.0,4.3,29.0,5.0,'11111222,11111222,11111222' 
TCOON,ioos:station:TCOON:003:1,2013-02-08T02:00:00Z,26.8015,-97.4706,0.0,3.1,78.0,3.8,'11111222,11111222,11111222' 
TCOON,ioos:station:TCOON:003:1,2013-02-08T03:00:00Z,26.8015,-97.4706,0.0,2.5,115.0,2.9,'11111222,11111222,11111222' 
TCOON,ioos:station:TCOON:003:1,2013-02-08T04:00:00Z,26.8015,-97.4706,0.0,1.6,84.0,1.9,'11111222,11111222,11111222' 
TCOON,ioos:station:TCOON:003:1,2013-02-08T05:00:00Z,26.8015,-97.4706,0.0,2.1,114.0,2.3,'11111222,11111222,11111222' 
TCOON,ioos:station:TCOON:003:1,2013-02-08T06:00:00Z,26.8015,-97.4706,0.0,1.3,72.0,1.8,'11111222,11111222,11111222' 
TCOON,ioos:station:TCOON:003:1,2013-02-08T07:00:00Z,26.8015,-97.4706,0.0,1.3,17.0,1.7,'11111222,11111222,11111222' 
TCOON,ioos:station:TCOON:003:1,2013-02-08T08:00:00Z,26.8015,-97.4706,0.0,2.5,356.0,3.0,'11111222,11111222,11111222' 
TCOON,ioos:station:TCOON:003:1,2013-02-08T09:00:00Z,26.8015,-97.4706,0.0,2.0,288.0,2.3,'11111222,11111222,11111222' 
TCOON,ioos:station:TCOON:003:1,2013-02-08T10:00:00Z,26.8015,-97.4706,0.0,5.3,353.0,5.9,'11111222,11111222,11111222' 
TCOON,ioos:station:TCOON:003:1,2013-02-08T11:00:00Z,26.8015,-97.4706,0.0,7.2,7.0,8.0,'11111222,11111222,11111222' 
TCOON,ioos:station:TCOON:003:1,2013-02-08T12:00:00Z,26.8015,-97.4706,0.0,11.5,31.0,13.4,'11111222,11111222,11111222' 
TCOON,ioos:station:TCOON:003:1,2013-02-08T13:00:00Z,26.8015,-97.4706,0.0,10.6,28.0,13.1,'11111222,11111222,11111222' 
TCOON,ioos:station:TCOON:003:1,2013-02-08T14:00:00Z,26.8015,-97.4706,0.0,10.3,26.0,12.3,'11111222,11111222,11111222' 
TCOON,ioos:station:TCOON:003:1,2013-02-08T15:00:00Z,26.8015,-97.4706,0.0,9.3,22.0,11.3,'11111222,11111222,11111222' 
TCOON,ioos:station:TCOON:003:1,2013-02-08T16:00:00Z,26.8015,-97.4706,0.0,8.2,22.0,10.2,'11111222,11111222,11111222' 
TCOON,ioos:station:TCOON:003:1,2013-02-08T17:00:00Z,26.8015,-97.4706,0.0,6.5,39.0,8.0,'11111222,11111222,11111222' 
TCOON,ioos:station:TCOON:003:1,2013-02-08T18:00:00Z,26.8015,-97.4706,0.0,4.9,31.0,8.2,'11111222,11111222,11111222' 
TCOON,ioos:station:TCOON:003:1,2013-02-08T19:00:00Z,26.8015,-97.4706,0.0,6.0,40.0,8.4,'11111222,11111222,11111222' 
TCOON,ioos:station:TCOON:003:1,2013-02-08T20:00:00Z,26.8015,-97.4706,0.0,5.8,43.0,7.1,'11111222,11111222,11111222' 
TCOON,ioos:station:TCOON:003:1,2013-02-08T21:00:00Z,26.8015,-97.4706,0.0,4.8,45.0,6.0,'11111222,11111222,11111222' 
TCOON,ioos:station:TCOON:003:1,2013-02-08T22:00:00Z,26.8015,-97.4706,0.0,5.2,58.0,6.7,'11111222,11111222,11111222' 
TCOON,ioos:station:TCOON:003:1,2013-02-08T23:00:00Z,26.8015,-97.4706,0.0,5.5,59.0,6.8,'11111222,11111222,11111222' 
TCOON,ioos:station:TCOON:003:1,2013-02-09T00:00:00Z,26.8015,-97.4706,0.0,5.0,44.0,6.0,'11111222,11111222,11111222' 
TCOON,ioos:station:TCOON:003:1,2013-02-09T01:00:00Z,26.8015,-97.4706,0.0,4.5,53.0,5.3,'11111222,11111222,11111222' 
TCOON,ioos:station:TCOON:003:1,2013-02-09T02:00:00Z,26.8015,-97.4706,0.0,4.8,87.0,5.4,'11111222,11111222,11111222' 
TCOON,ioos:station:TCOON:003:1,2013-02-09T03:00:00Z,26.8015,-97.4706,0.0,4.2,90.0,5.1,'11111222,11111222,11111222' 
TCOON,ioos:station:TCOON:003:1,2013-02-09T04:00:00Z,26.8015,-97.4706,0.0,5.2,94.0,6.3,'11111222,11111222,11111222' 
TCOON,ioos:station:TCOON:003:1,2013-02-09T05:00:00Z,26.8015,-97.4706,0.0,3.4,100.0,4.3,'11111222,11111222,11111222' 
TCOON,ioos:station:TCOON:003:1,2013-02-09T06:00:00Z,26.8015,-97.4706,0.0,4.9,101.0,5.8,'11111222,11111222,11111222' 
TCOON,ioos:station:TCOON:003:1,2013-02-09T07:00:00Z,26.8015,-97.4706,0.0,4.6,99.0,5.4,'11111222,11111222,11111222' 
TCOON,ioos:station:TCOON:003:1,2013-02-09T08:00:00Z,26.8015,-97.4706,0.0,4.0,103.0,4.9,'11111222,11111222,11111222' 
TCOON,ioos:station:TCOON:003:1,2013-02-09T09:00:00Z,26.8015,-97.4706,0.0,4.1,112.0,4.8,'11111222,11111222,11111222' 
TCOON,ioos:station:TCOON:003:1,2013-02-09T10:00:00Z,26.8015,-97.4706,0.0,5.5,107.0,6.7,'11111222,11111222,11111222' 
TCOON,ioos:station:TCOON:003:1,2013-02-09T11:00:00Z,26.8015,-97.4706,0.0,5.4,105.0,6.4,'11111222,11111222,11111222' 